• In Deutschland
  • Länderverzeichnis
  • Für 7 Tage
  • Wassertemperatur
  • Satellitenkarten
  • Wetterkarte
  • Widgets
  • user-avatar
    Anmelden

    Stündliche Wetter Bad Bocklet

    Heute, 14 August, Dienstag

    Zeit Temperatur Niederschläge Wind Luftdruck Luftfeuchtigkeit
    00:00 +15°C° 0 mm 2 m/S 725 mmHg 94%
    01:00 +15°C° 0 mm 2 m/S 725 mmHg 94%
    02:00 +15°C° 0 mm 2 m/S 725 mmHg 95%
    03:00 +14°C° 0 mm 2 m/S 726 mmHg 96%
    04:00 +14°C° 0 mm 2 m/S 726 mmHg 96%
    05:00 +15°C° 0 mm 2 m/S 726 mmHg 94%
    06:00 +14°C° 0 mm 3 m/S 726 mmHg 93%
    07:00 +16°C° 0 mm 3 m/S 727 mmHg 91%
    08:00 +17°C° 0,1 mm 3 m/S 727 mmHg 85%
    09:00 +18°C° 0,1 mm 4 m/S 727 mmHg 80%
    10:00 +19°C° 0,1 mm 4 m/S 728 mmHg 75%
    11:00 +20°C° 0,3 mm 4 m/S 728 mmHg 70%
    12:00 +21°C° 0,3 mm 4 m/S 728 mmHg 66%
    13:00 +22°C° 0,3 mm 5 m/S 728 mmHg 61%
    14:00 +23°C° 0,2 mm 4 m/S 728 mmHg 60%
    15:00 +23°C° 0,2 mm 4 m/S 728 mmHg 59%
    16:00 +23°C° 0,2 mm 4 m/S 728 mmHg 58%
    17:00 +22°C° 0,1 mm 3 m/S 728 mmHg 63%
    18:00 +21°C° 0,1 mm 3 m/S 729 mmHg 68%
    19:00 +20°C° 0,1 mm 2 m/S 729 mmHg 73%
    20:00 +19°C° 0 mm 2 m/S 729 mmHg 78%
    21:00 +18°C° 0 mm 2 m/S 730 mmHg 83%
    22:00 +16°C° 0 mm 1 m/S 730 mmHg 88%
    23:00 +16°C° 0 mm 1 m/S 730 mmHg 89%

    Morgen, 15 August, Mittwoch

    Zeit Temperatur Niederschläge Wind Luftdruck Luftfeuchtigkeit
    00:00 +15°C° 0 mm 1 m/S 730 mmHg 91%
    01:00 +15°C° 0 mm 1 m/S 731 mmHg 93%
    02:00 +15°C° 0 mm 1 m/S 731 mmHg 93%
    03:00 +14°C° 0 mm 1 m/S 731 mmHg 94%
    04:00 +14°C° 0 mm 1 m/S 731 mmHg 94%
    05:00 +15°C° 0 mm 1 m/S 731 mmHg 92%
    06:00 +15°C° 0 mm 1 m/S 731 mmHg 89%
    07:00 +16°C° 0 mm 1 m/S 732 mmHg 87%
    08:00 +19°C° 0 mm 1 m/S 732 mmHg 78%
    09:00 +19°C° 0 mm 2 m/S 732 mmHg 70%
    10:00 +21°C° 0 mm 2 m/S 733 mmHg 61%
    11:00 +23°C° 0 mm 2 m/S 732 mmHg 57%
    12:00 +24°C° 0 mm 3 m/S 732 mmHg 53%
    13:00 +25°C° 0 mm 3 m/S 732 mmHg 49%
    14:00 +25°C° 0 mm 2 m/S 732 mmHg 50%
    15:00 +25°C° 0 mm 2 m/S 732 mmHg 50%
    16:00 +25°C° 0 mm 2 m/S 732 mmHg 50%
    17:00 +24°C° 0 mm 2 m/S 732 mmHg 56%
    18:00 +23°C° 0 mm 1 m/S 732 mmHg 62%
    19:00 +22°C° 0 mm 1 m/S 731 mmHg 68%
    20:00 +20°C° 0 mm 1 m/S 732 mmHg 72%
    21:00 +19°C° 0 mm 1 m/S 732 mmHg 77%
    22:00 +18°C° 0 mm 1 m/S 732 mmHg 81%
    23:00 +15°C° 0 mm 0 m/S 732 mmHg 83%

    übermorgen, 16 August, Donnerstag

    Zeit Temperatur Niederschläge Wind Luftdruck Luftfeuchtigkeit
    00:00 +15°C° 0 mm 0 m/S 732 mmHg 85%
    01:00 +14°C° 0 mm 0 m/S 732 mmHg 86%
    02:00 +14°C° 0 mm 0 m/S 731 mmHg 87%
    03:00 +14°C° 0 mm 0 m/S 731 mmHg 88%
    04:00 +14°C° 0 mm 0 m/S 731 mmHg 89%
    05:00 +15°C° 0 mm 0 m/S 731 mmHg 86%
    06:00 +16°C° 0 mm 0 m/S 731 mmHg 82%
    07:00 +19°C° 0 mm 1 m/S 731 mmHg 78%
    08:00 +21°C° 0 mm 1 m/S 731 mmHg 70%
    09:00 +23°C° 0 mm 1 m/S 731 mmHg 62%
    10:00 +25°C° 0 mm 1 m/S 731 mmHg 54%
    11:00 +26°C° 0 mm 1 m/S 731 mmHg 51%
    12:00 +27°C° 0 mm 1 m/S 731 mmHg 47%
    13:00 +28°C° 0 mm 1 m/S 730 mmHg 44%
    14:00 +29°C° 0 mm 1 m/S 730 mmHg 43%
    15:00 +29°C° 0 mm 1 m/S 729 mmHg 42%
    16:00 +29°C° 0 mm 1 m/S 729 mmHg 42%
    17:00 +28°C° 0 mm 1 m/S 729 mmHg 47%
    18:00 +26°C° 0 mm 1 m/S 729 mmHg 53%
    19:00 +25°C° 0 mm 1 m/S 728 mmHg 59%
    20:00 +23°C° 0 mm 1 m/S 728 mmHg 62%
    21:00 +22°C° 0 mm 1 m/S 728 mmHg 65%
    22:00 +21°C° 0 mm 1 m/S 729 mmHg 68%
    23:00 +20°C° 0 mm 1 m/S 728 mmHg 70%

    17 August, Freitag

    Zeit Temperatur Niederschläge Wind Luftdruck Luftfeuchtigkeit
    00:00 +20°C° 0 mm 1 m/S 728 mmHg 72%
    01:00 +19°C° 0 mm 1 m/S 728 mmHg 74%
    02:00 +19°C° 0 mm 1 m/S 728 mmHg 77%
    03:00 +19°C° 0 mm 1 m/S 728 mmHg 79%
    04:00 +18°C° 0 mm 1 m/S 728 mmHg 82%
    05:00 +19°C° 0,1 mm 1 m/S 728 mmHg 81%
    06:00 +20°C° 0,1 mm 1 m/S 729 mmHg 79%
    07:00 +21°C° 0,1 mm 1 m/S 729 mmHg 78%
    08:00 +23°C° 0,4 mm 1 m/S 729 mmHg 73%
    09:00 +24°C° 0,4 mm 1 m/S 729 mmHg 68%
    10:00 +26°C° 0,4 mm 1 m/S 730 mmHg 63%
    11:00 +27°C° 0,9 mm 2 m/S 730 mmHg 61%
    12:00 +27°C° 0,9 mm 2 m/S 730 mmHg 58%
    13:00 +28°C° 0,9 mm 2 m/S 730 mmHg 55%
    14:00 +28°C° 0,5 mm 2 m/S 730 mmHg 57%
    15:00 +27°C° 0,5 mm 2 m/S 730 mmHg 58%
    16:00 +27°C° 0,5 mm 3 m/S 730 mmHg 60%
    17:00 +25°C° 0,7 mm 3 m/S 730 mmHg 66%
    18:00 +24°C° 0,7 mm 3 m/S 730 mmHg 72%
    19:00 +21°C° 0,7 mm 2 m/S 730 mmHg 79%
    20:00 +20°C° 0,2 mm 2 m/S 730 mmHg 83%
    21:00 +19°C° 0,2 mm 2 m/S 731 mmHg 87%
    22:00 +18°C° 0,2 mm 2 m/S 731 mmHg 92%
    23:00 +18°C° 0 mm 1 m/S 732 mmHg 92%

    18 August, Samstag

    Zeit Temperatur Niederschläge Wind Luftdruck Luftfeuchtigkeit
    00:00 +18°C° 0 mm 1 m/S 732 mmHg 92%
    01:00 +16°C° 0 mm 1 m/S 732 mmHg 93%
    02:00 +16°C° 0 mm 1 m/S 732 mmHg 92%
    03:00 +15°C° 0 mm 1 m/S 732 mmHg 92%
    04:00 +15°C° 0 mm 1 m/S 732 mmHg 91%
    05:00 +15°C° 0 mm 1 m/S 733 mmHg 89%
    06:00 +16°C° 0 mm 1 m/S 733 mmHg 86%
    07:00 +16°C° 0 mm 1 m/S 733 mmHg 83%
    08:00 +19°C° 0 mm 1 m/S 734 mmHg 74%
    09:00 +22°C° 0 mm 1 m/S 734 mmHg 65%
    10:00 +24°C° 0 mm 1 m/S 734 mmHg 55%
    11:00 +24°C° 0 mm 1 m/S 734 mmHg 50%
    12:00 +25°C° 0 mm 2 m/S 734 mmHg 44%
    13:00 +26°C° 0 mm 2 m/S 734 mmHg 39%
    14:00 +26°C° 0 mm 2 m/S 733 mmHg 38%
    15:00 +26°C° 0 mm 2 m/S 733 mmHg 38%
    16:00 +27°C° 0 mm 2 m/S 733 mmHg 37%
    17:00 +25°C° 0 mm 2 m/S 733 mmHg 43%
    18:00 +23°C° 0 mm 1 m/S 733 mmHg 50%
    19:00 +22°C° 0 mm 1 m/S 733 mmHg 56%
    20:00 +21°C° 0 mm 1 m/S 733 mmHg 58%
    21:00 +17°C° 0 mm 0 m/S 733 mmHg 61%
    22:00 +16°C° 0 mm 0 m/S 734 mmHg 64%
    23:00 +16°C° 0 mm 0 m/S 734 mmHg 65%

    19 August, Sonntag

    Zeit Temperatur Niederschläge Wind Luftdruck Luftfeuchtigkeit
    00:00 +15°C° 0 mm 0 m/S 734 mmHg 67%
    01:00 +15°C° 0 mm 0 m/S 734 mmHg 69%
    02:00 +14°C° 0 mm 0 m/S 734 mmHg 71%
    03:00 +14°C° 0 mm 0 m/S 734 mmHg 73%
    04:00 +14°C° 0 mm 0 m/S 734 mmHg 75%
    05:00 +15°C° 0 mm 0 m/S 734 mmHg 74%
    06:00 +16°C° 0 mm 0 m/S 734 mmHg 72%
    07:00 +17°C° 0 mm 0 m/S 734 mmHg 71%
    08:00 +21°C° 0 mm 1 m/S 734 mmHg 65%
    09:00 +23°C° 0 mm 1 m/S 735 mmHg 59%
    10:00 +25°C° 0 mm 1 m/S 735 mmHg 53%
    11:00 +26°C° 0 mm 2 m/S 735 mmHg 50%
    12:00 +27°C° 0 mm 2 m/S 734 mmHg 46%
    13:00 +28°C° 0 mm 2 m/S 734 mmHg 43%
    14:00 +28°C° 0 mm 2 m/S 734 mmHg 43%
    15:00 +28°C° 0 mm 2 m/S 733 mmHg 42%
    16:00 +29°C° 0 mm 2 m/S 733 mmHg 41%
    17:00 +27°C° 0 mm 1 m/S 733 mmHg 48%
    18:00 +25°C° 0 mm 1 m/S 733 mmHg 54%
    19:00 +24°C° 0 mm 1 m/S 733 mmHg 60%
    20:00 +21°C° 0 mm 0 m/S 733 mmHg 63%
    21:00 +19°C° 0 mm 0 m/S 733 mmHg 66%
    22:00 +18°C° 0 mm 0 m/S 733 mmHg 69%
    23:00 +18°C° 0 mm 0 m/S 733 mmHg 71%
    Mehr zeigen